7 * 24
多渠道服务支持
NINGXIA-1 9 是由中国宁夏回族自治区主导研制的一颗遥感卫星,主要用于国土资源监测、农业资源调查和生态环境评估等领域。该卫星具备高分辨率成像能力,能够提供精准的遥感数据,支持地方经济发展与科学决策。作为宁夏卫星工程的一部分,NINGXIA-1 9 的成功发射提升了区域遥感应用水平,推动了航天技术与地方产业的深度融合。
中国
(CN)
| 数据来源 | 国际轨道数据 |
| 星历时间: | 2025-12-15T15:28:43+0800 17小时前 查看轨道信息 |
| 半长轴: | 7242.784km |
| 偏心率: | 0.0006901 |
| 轨道倾角: | 45.004° |
| 近地点辐角 | 93.978° |
| 升交点赤经 | 337.640° |
| 平近点角 | 266.185° |
| 近地点: | 859.65km |
| 远地点: | 869.648km |
| 周期: | 102.239分钟 |
| 每日圈数: | 14.0846 |